CAPE
589 1099 2164 2172 1941 2017 1968 2044 2060 2008 1704 1834 1611 1608 1677 1847 1919 2233 2107 2155 1821 2225 1543 1455 1666 1059 783 886 820 759 411 916 1060 700 554 882 959 813 871 726 1061 692 1218
600 989 2101 1927 1480 1348 1449 1935 2331 2059 1945 1750 1595 1821 2089 1945 2190 1840 1998 2133 2056 2096 1582 1390 1351 1127 930 887 917 969 1055 570 1294 1096 756 1215 1056 1076 1198 805 1401 928 1178
538 810 988 1869 1630 1734 2022 2053 1791 2264 2021 1994 2152 2181 2032 1902 2196 2022 1950 2019 2168 1968 1889 1698 1424 1028 1006 889 1024 1179 1150 1085 1029 1190 1342 243 796 1142 1586 935 1352 1453 1425
387 467 418 1761 1864 1676 1758 1792 1816 1778 1910 1953 1987 1941 1741 1921 1905 1951 2092 1774 1630 1920 1809 1734 1477 1133 1049 965 1362 1420 1236 1156 1124 914 1058 170 779 1573 1591 1540 1570 1592 1626
87 157 754 1918 1689 1291 1252 1157 1153 1153 1318 1571 1823 1709 1731 1572 2017 2005 1831 1968 1735 1563 1823 1516 1476 1435 1382 1565 1580 1621 1091 920 402 709 810 856 785 956 1351 1329 1342 1578 1652
65 118 1417 1711 1081 1130 1095 1050 887 872 1079 1516 1908 1740 1639 1583 1558 1924 1814 1678 1572 1453 1889 1666 1475 1414 1605 1770 1637 1638 1402 1156 1224 691 1011 1415 1052 1543 1434 1716 1100 1400 1573
289 324 938 1922 1413 1104 1132 1095 949 824 777 881 1377 1689 1570 1429 1501 1771 1738 1631 1869 1712 1468 1900 1857 1901 1743 1664 1636 1552 1167 1459 1584 910 458 1176 1698 2328 1706 1243 1586 1755 1816
205 144 615 1283 1294 1337 1190 1173 1123 898 693 569 642 1200 1420 1288 1243 1338 1688 1527 1327 1498 1554 1277 1614 1707 1759 1675 1700 1146 1118 1427 1448 566 614 899 2180 2459 987 1205 1789 1868 1652
5 340 481 558 1067 1337 1417 1383 1381 1256 986 712 366 322 842 1179 1230 1189 1146 1461 1458 1285 1404 1439 1471 1310 1448 1439 1326 944 1198 1479 1450 946 801 1175 2366 2227 1575 1460 1698 1569 1814
297 265 224 432 479 922 1592 1630 1622 1544 1357 1178 934 628 330 451 1019 1046 1265 1176 1166 1382 1131 1115 1310 1419 1365 1461 1510 1161 1125 1294 290 387 512 791 2202 1850 1090 1055 1522 1848 2171
133 304 99 141 1049 666 44 1722 1679 1488 1236 1079 986 1157 917 955 1055 1020 1635 1126 1105 1129 1069 1149 1193 1094 1355 1506 1514 1474 1262 704 324 294 88 2155 2605 2412 2069 1520 1197 1608 1842
22 193 58 213 702 1204 1014 1836 2066 1599 1492 1737 823 1219 1094 1079 1664 1083 953 918 1014 1167 1163 1039 1039 1132 1047 477 1132 1585 1317 709 239 98 86 1738 2300 2040 2035 2618 2211 1833 2089
42 28 409 528 1579 482 1401 1489 1557 1210 1488 1118 1447 1453 1079 967 906 948 1046 1163 837 1077 1061 1279 1127 936 608 623 435 466 791 642 188 86 621 1867 2144 2037 1619 2458 2746 2324 1650
89 140 63 607 1221 446 979 716 1457 890 1364 1571 1382 1220 830 782 298 887 1010 736 1269 768 595 1019 1408 1498 1206 592 1288 333 719 479 176 506 553 1238 2057 2560 1957 2124 2529 2805 2692
192 321 331 689 2527 1559 1813 2273 820 1068 582 660 898 846 507 656 1237 1627 1450 1659 1458 744 1158 1094 1112 1242 1147 1334 1160 1132 1519 902 373 300 554 1895 1339 2124 2354 2307 2395 2439 2318
555 649 593 1381 1983 1469 1820 1797 2405 1407 1052 1346 1520 1300 666 523 1460 928 1406 1229 1213 1127 1950 1753 1787 1872 2046 1613 1923 1518 1497 778 1014 1401 914 1016 1673 2142 2277 2392 2619 2923 2738
996 861 929 1238 1463 2000 1995 1911 1564 986 332 1198 1457 1024 356 171 262 767 984 1109 1329 1832 1806 1234 1921 1719 1771 1609 1891 1598 1349 1205 1141 1007 529 1331 1520 2378 2277 2354 2626 2969 2520
529 303 1530 594 1067 1396 1535 2050 1406 740 5 861 1363 715 229 336 356 623 1257 1381 881 1299 1830 1956 1722 1539 1652 1579 1413 1423 1583 1335 1398 1072 1032 999 958 912 1998 2326 2389 2712 2960
155 679 916 1664 1293 1543 2821 1907 1770 1398 963 1600 1415 871 692 975 1686 1854 2010 1755 1931 1857 1500 2021 1452 1563 1722 1933 1586 2027 1678 1779 1643 1213 920 907 1227 942 1346 1645 2159 2522 2934
510 1835 2343 1313 2521 2670 2370 2806 2782 1291 2318 1226 1624 1689 1467 1554 1333 2057 1991 2054 2952 2609 2433 1844 2244 2438 2429 2091 1609 678 853 1859 1459 1481 1213 1068 931 1286 1272 1691 1730 1880 2688
1701 1806 2108 2408 3433 2781 2852 2277 2784 2734 1420 1651 1715 1618 1199 1627 1085 1571 2549 1570 1670 2170 2351 2484 2525 2597 2210 1987 2245 2375 1818 1600 688 1557 1273 1086 1270 1206 1073 2072 2274 1694 1693
1946 2245 2622 2745 2948 2980 3098 3328 2899 3024 1939 1189 1729 2075 1986 2726 3094 2804 3251 2419 849 1772 3237 2918 2320 2551 2277 2283 2012 2339 1678 1925 493 496 1531 1557 1509 1351 1530 1157 2043 1896 1780
912 2934 2873 3339 3373 3328 3284 3491 3146 3172 3385 1955 2644 2098 2404 2819 3158 3424 3665 3418 2566 2425 2374 2407 2307 1930 1999 1927 2084 1673 1012 1197 1374 2034 1894 1961 1585 839 34 0 1025 1026 1815
2143 2565 3336 3536 3903 3569 3893 3400 2802 2546 1979 2709 2921 825 2729 1953 2409 2518 3119 3583 3158 3111 2705 2317 2475 2361 2789 2037 1929 1588 1721 2017 1216 685 1763 1363 595 57 0 86 60 772 2200
1722 2549 3186 3999 4128 3730 4102 3563 2921 2884 2917 1969 3214 3051 3137 1284 3133 2674 3207 2617 2802 3077 2659 2656 2433 2039 2565 2096 1703 1715 2617 1718 2074 1378 838 858 45 0 0 0 18 254 1895
1752 2509 3254 3999 3932 3882 3218 3847 3403 3181 3332 3013 3288 2662 2510 2917 2374 3073 2297 2769 3513 2623 2750 3204 3003 2463 2361 2756 2905 2484 1859 1623 1418 2043 1875 870 915 498 75 64 504 675 628
CIN
-7 -1 0 0 0 0 0 0 0 0 0 0 0 0 0 0 0 0 0 0 0 0 0 0 0 0 0 0 0 0 -7 -9 -32 -6 -9 -23 0 -2 -3 -10 -3 -1 -1
-21 -6 0 0 0 0 0 0 0 0 0 0 0 0 0 0 0 0 0 0 0 0 0 0 0 0 0 0 0 0 0 -12 -1 -8 -9 0 0 -2 -1 -1 -1 -4 -1
-23 -24 -5 0 0 0 0 0 0 0 0 0 0 0 -1 0 0 0 0 0 0 0 0 0 0 0 0 -3 -4 0 0 -1 -3 -8 -3 -15 0 0 0 -9 0 0 0
-39 -25 -44 0 0 0 0 0 0 0 0 0 0 0 0 0 0 -1 0 0 0 0 0 0 0 0 0 -9 -13 -2 -4 -11 -17 -27 -28 -28 -3 0 0 0 0 0 0
-20 -37 -35 0 0 0 0 0 -2 -1 0 0 -1 0 0 0 0 0 0 0 0 0 0 0 0 0 0 0 -9 -17 -15 -37 -84 -34 -65 -28 -21 -2 0 -3 -1 0 0
-24 -65 -7 0 -9 -4 -2 0 -1 -5 0 0 0 0 0 0 0 0 0 0 0 0 0 0 0 0 0 0 -16 -30 -42 -26 -18 -125 -15 -13 -27 0 0 0 -1 0 0
-32 -69 -33 0 -3 -7 -3 -1 0 0 -3 -1 0 0 0 0 0 0 0 0 0 0 0 0 0 0 0 0 -11 -39 -62 -58 -56 -54 -173 -26 -17 0 0 0 0 0 0
-61 -88 -56 -10 -6 -3 -2 -4 -1 0 -4 -15 -9 0 0 -1 0 0 0 -2 0 0 0 0 0 0 0 0 -1 -31 -47 -51 -29 -16 -119 -36 -14 0 -16 -1 0 0 0
-37 -70 -47 -42 -8 0 0 0 0 0 -1 -12 -33 -34 -7 -6 -8 -5 -1 0 -1 -1 0 0 0 -1 0 0 -11 -34 -42 -31 -39 -72 -28 -77 -27 -3 0 0 0 0 0
-10 -37 -46 -46 -30 -1 -2 -1 -1 -1 -2 -2 -14 -25 -35 -26 -9 -12 -9 -7 -1 0 -4 -1 0 0 0 -2 -7 -28 -38 -41 -167 -155 -20 -84 -47 -26 -36 -31 -1 0 0
-10 -7 -34 -27 -16 -140 -228 -8 -6 -21 -16 -15 -16 -14 -20 -35 -13 -8 -4 -12 -8 -4 -4 -6 -4 -6 -4 -6 -18 -27 -39 -45 -113 -132 -139 -59 -28 -26 -8 -18 -24 -2 0
-47 -12 -22 -29 -10 -50 -40 -21 -10 -25 -28 -16 -14 -1 -20 -27 -8 -12 -10 -12 -13 -10 -10 -16 -16 -14 -16 -35 -25 -17 -35 -50 -159 -283 -226 -74 -53 -46 -22 0 0 -1 0
-54 -46 -10 -40 -12 -54 -34 -6 -31 -75 -21 -36 -14 -4 -18 -19 -42 -40 -62 -15 -27 -20 -11 -14 -18 -21 -28 -16 -125 -75 -27 -22 -29 -143 -46 -53 -62 -69 -55 -5 0 0 -3
-40 -37 -30 -5 -7 -53 -39 -15 -48 -81 -16 -11 -2 -9 -73 -41 -92 -82 -24 -67 -32 -43 -53 -46 -25 -15 -24 -50 -24 -115 -30 -101 -79 -75 -195 -50 -50 -48 -49 -31 -1 0 0
-4 -3 -3 -16 -7 -3 -8 -14 -63 -44 -103 -53 -11 -50 -82 -74 -30 -4 -10 -15 -26 -71 -42 -36 -31 -29 -23 -14 -5 -9 -24 -27 -21 -38 -91 -29 -57 -38 -36 -26 -10 -1 0
-8 -8 -2 -16 -13 -5 -7 -8 -11 -33 -82 -69 -13 -21 -81 -110 -31 -34 -16 -25 -48 -36 -10 -20 -8 -6 -5 -5 -6 -9 -28 -30 -42 -25 -63 -82 -97 -44 -41 -22 -15 0 0
-42 -113 -11 -1 -9 -1 0 -4 -10 -130 -176 -64 -52 -75 -174 -219 -176 -92 -51 -35 -55 -24 -13 -21 -7 -10 -12 -13 -11 -11 -30 -47 -34 -45 -56 -56 -69 -49 -48 -45 -39 -17 -22
-226 -181 -64 -1 -3 -9 -4 -5 -20 -161 -51 -126 -98 -126 -233 -183 -168 -114 -49 -27 -103 -59 -18 -14 -26 -26 -27 -36 -29 -23 -22 -49 -23 -32 -47 -66 -83 -46 -65 -45 -50 -31 -16
-251 -163 -154 -8 -5 -14 -5 -5 -18 -30 -117 -80 -92 -137 -184 -140 -70 -74 -40 -28 -45 -31 -54 -25 -38 -46 -29 -26 -31 -18 -25 -36 -30 -18 -19 -33 -65 -72 -58 -113 -87 -63 -42
-155 -10 -6 -9 -5 -17 -13 -2 -28 -35 -27 -121 -93 -89 -79 -75 -126 -42 -54 -54 -15 -9 -24 -53 -31 -18 -20 -44 -21 -32 -65 -38 -69 -66 -44 -35 -64 -34 -29 -80 -125 -93 -68
-10 -25 -3 -3 -8 -5 -3 -5 -3 -7 -75 -43 -60 -111 -109 -85 -147 -98 -27 -62 -60 -29 -24 -15 -12 -15 -22 -58 -21 -53 -81 -57 -168 -54 -77 -13 -30 -48 -41 -47 -85 -98 -95
-8 -22 -6 -3 -12 -3 -3 -8 -9 -6 -51 -88 -46 -41 -59 -25 -4 -2 -17 -29 -138 -30 -23 -15 -9 -14 -14 -42 -33 -24 -19 -45 -410 -230 -105 -37 -38 -30 -41 -70 -57 -71 -89
-206 -11 -28 -2 -11 -3 -12 -4 -12 -11 -15 -65 -16 -33 -10 -4 -4 -10 -5 -20 -26 -26 -25 -20 -22 -30 -24 -38 -34 -26 -18 -24 -32 -38 -24 -61 -55 -219 -273 0 -117 -90 -82
-7 -11 -25 -2 -2 -1 -1 -7 -18 -33 -25 -20 -46 -128 -24 -45 -18 -13 -31 -34 -26 -23 -30 -34 -10 -28 -12 -26 -44 -22 -52 -36 -29 -58 -47 -77 -222 -279 0 -231 -418 -175 -41
-3 -10 -8 -1 0 -3 -1 -8 -32 -13 -21 -23 -4 -13 -18 -133 -13 -25 -15 -12 -4 -17 -29 -21 -32 -24 -20 -21 -27 -59 -12 -43 -30 -49 -54 -63 -10 0 0 -26 -445 -306 -56
-2 -13 -3 -1 0 0 0 -1 -6 -2 -2 -6 -6 -28 -21 -20 -56 -23 -34 -11 -6 -18 -12 -7 -8 -21 -23 -10 -12 -25 -27 -26 -30 -17 -21 -85 -70 -148 -251 -336 -161 -120 -111
Wind_Speed
15 14 13 13 14 14 14 14 13 12 12 12 10 11 11 12 12 12 13 15 17 15 15 15 16 17 16 16 15 16 16 17 17 18 18 16 14 12 11 11 17 14 13
18 16 13 13 14 13 13 13 14 13 11 10 10 9 11 11 10 11 10 13 13 14 14 14 15 15 15 13 13 14 15 15 15 18 18 16 16 14 12 14 18 12 14
19 16 14 13 13 12 12 11 13 13 12 11 11 12 11 10 10 10 11 11 12 13 13 14 13 13 13 11 10 13 15 12 12 17 19 10 11 15 15 17 16 16 15
18 16 15 13 12 12 12 13 13 12 12 12 12 10 10 11 10 11 11 12 11 11 12 12 12 12 11 9 7 9 13 12 10 9 3 12 11 14 15 14 15 15 14
20 17 15 14 13 12 12 12 12 12 11 11 11 9 9 10 10 12 10 11 9 10 10 10 11 11 10 9 6 3 7 7 8 2 4 10 8 11 12 14 13 13 14
22 18 15 14 14 12 12 11 11 11 10 10 11 10 9 9 9 10 11 9 9 9 10 9 10 9 9 8 4 2 3 4 6 14 8 11 10 12 10 12 14 14 13
21 18 15 12 13 12 11 11 10 10 10 9 10 11 9 9 8 10 9 9 9 7 9 9 8 10 8 7 3 4 7 10 10 9 10 7 9 13 12 12 12 12 11
20 18 14 12 12 11 11 10 9 8 9 8 8 8 9 8 8 9 9 8 8 8 7 8 8 8 7 7 4 3 7 11 13 6 11 10 13 13 12 11 10 11 11
20 17 13 12 10 8 7 7 8 8 7 7 6 5 5 6 7 8 7 8 8 7 8 6 7 7 7 6 3 3 8 10 9 7 11 9 14 13 12 11 10 10 10
18 15 14 13 12 10 2 9 8 8 7 6 4 1 1 3 5 7 8 7 6 8 7 7 7 7 7 6 6 6 7 9 5 7 3 9 17 16 12 11 9 9 11
11 13 16 16 14 18 18 10 11 11 8 7 4 5 4 5 6 9 7 9 9 7 7 8 7 8 8 9 11 10 9 5 6 1 6 16 15 17 13 11 11 10 8
12 7 5 10 16 16 11 12 11 9 4 3 2 3 4 4 6 8 7 9 9 9 9 9 10 10 9 6 6 11 5 8 5 7 6 15 17 17 14 12 12 11 10
13 7 14 7 6 7 9 7 3 4 5 4 4 4 2 2 3 2 3 3 5 9 6 8 7 6 9 6 6 6 9 6 3 6 9 15 20 19 17 13 12 14 12
14 14 9 9 8 6 3 5 7 5 3 5 3 4 6 3 2 4 2 4 5 3 4 6 4 4 6 8 8 8 8 7 6 6 12 17 13 16 18 17 15 14 15
13 13 10 11 6 2 2 4 8 7 5 2 3 10 5 4 3 2 2 4 3 4 3 3 3 3 2 5 5 5 5 7 5 2 5 16 10 14 16 17 17 16 16
12 9 11 12 8 5 2 3 4 7 6 4 1 3 5 4 0 2 2 5 3 3 1 2 2 3 3 6 4 7 5 7 7 4 6 8 15 17 16 16 17 18 18
7 9 1 10 13 7 5 5 4 7 6 2 3 4 6 5 5 3 2 5 4 4 4 3 3 3 4 6 6 7 7 8 8 6 5 4 9 14 16 19 19 19 18
6 2 10 10 16 10 9 6 7 10 7 7 4 5 7 5 3 4 4 5 3 1 3 2 3 3 4 4 5 6 4 5 5 8 7 6 7 8 14 18 18 19 19
15 13 17 6 10 13 7 7 6 7 10 9 6 5 5 5 7 5 5 5 4 4 4 2 1 3 3 4 5 4 4 5 6 7 8 10 9 10 7 19 21 20 21
22 15 10 6 8 8 7 2 3 2 3 2 4 4 5 5 7 6 4 5 6 4 4 2 4 4 4 4 3 5 5 5 5 5 6 5 6 7 9 11 11 11 20
19 14 10 9 8 5 5 6 4 5 4 6 6 11 17 13 9 9 4 6 5 3 4 4 5 6 5 5 2 4 7 7 6 6 6 5 7 6 6 5 7 8 10
12 10 12 10 9 4 6 3 3 1 3 3 4 8 12 7 4 2 3 4 8 7 6 5 5 3 4 5 4 3 3 1 5 9 11 6 8 4 6 7 4 9 7
17 13 11 9 11 7 5 2 2 2 3 5 3 3 3 3 5 6 4 4 4 4 5 4 5 5 6 6 5 2 3 2 4 1 4 7 8 6 4 9 2 15 10
15 13 13 9 8 7 5 3 3 2 2 4 4 5 3 6 5 4 6 6 5 3 4 5 7 5 2 6 4 1 3 0 1 4 3 3 7 3 5 5 5 12 8
11 12 10 8 5 1 4 4 4 3 3 4 2 1 1 2 8 3 4 7 4 4 5 5 6 4 4 4 5 5 1 2 1 3 4 2 2 3 2 3 3 10 10
10 12 10 7 3 3 2 3 3 3 5 6 6 5 4 4 6 2 7 6 4 4 5 4 5 6 6 5 4 5 3 3 3 3 4 5 9 4 5 4 10 6 13
Wind_Direction
123 122 116 103 97 96 95 93 95 100 102 100 94 82 75 71 74 76 78 87 89 96 92 84 89 97 95 93 93 95 98 109 103 105 106 99 98 109 111 124 122 105 103
125 121 115 108 101 98 96 92 94 92 92 101 97 86 80 75 73 83 81 87 90 98 98 99 98 96 98 96 102 105 105 115 119 113 107 102 96 97 101 106 89 105 105
123 127 122 112 107 101 97 102 98 92 90 90 89 79 73 75 69 94 83 88 91 99 99 105 107 111 107 107 111 107 103 111 131 139 133 108 102 104 96 97 105 108 106
129 130 127 117 110 101 95 93 88 85 87 86 80 78 82 78 76 87 92 93 94 91 100 105 111 106 104 101 89 99 126 151 120 189 262 115 99 98 105 107 109 106 107
135 123 122 123 118 114 107 101 98 91 85 82 76 80 84 87 84 90 90 91 110 105 108 111 108 111 109 106 102 122 128 158 172 277 217 113 106 115 117 117 113 121 109
123 120 129 130 127 123 116 109 102 97 89 80 79 82 80 87 96 89 97 99 111 112 110 116 121 119 114 107 114 282 306 217 234 214 89 108 108 121 125 110 107 113 113
112 128 134 135 135 133 127 119 111 103 96 86 77 76 79 88 91 91 94 97 98 110 119 120 120 121 126 119 111 318 306 312 309 127 91 106 124 127 119 120 119 119 121
128 132 139 145 147 144 137 131 125 116 105 95 87 84 89 99 101 102 106 110 109 110 134 132 136 131 142 132 131 284 298 319 328 60 139 131 134 129 128 133 135 127 125
133 130 142 155 156 136 135 149 142 131 120 106 94 92 101 113 122 122 114 117 119 125 130 129 141 150 147 152 168 275 306 328 326 325 129 130 133 135 141 146 146 140 140
125 144 157 152 147 156 150 176 172 149 143 127 126 138 187 176 164 143 139 129 131 134 143 152 155 167 174 190 203 228 273 301 48 305 18 140 150 148 155 156 158 160 156
132 167 165 158 136 134 189 202 182 164 160 152 172 226 239 219 159 174 143 159 157 164 162 162 173 185 197 212 217 221 238 252 139 127 317 152 159 151 162 168 171 174 176
153 200 124 121 155 154 162 180 182 168 145 171 167 189 255 134 166 164 168 183 179 182 192 193 195 201 213 229 207 226 238 240 169 165 215 194 165 158 168 185 184 186 190
164 180 131 135 116 88 165 168 126 121 150 180 194 229 346 323 6 60 154 188 194 203 198 199 201 220 221 227 89 270 223 253 245 199 193 190 175 163 170 188 191 195 197
171 157 204 148 114 144 227 137 126 150 180 168 104 85 42 9 152 249 210 216 193 190 287 170 210 232 248 187 201 220 229 204 253 148 140 225 185 170 178 187 196 202 205
159 156 166 141 111 120 31 355 149 131 106 103 229 118 145 215 301 57 41 310 154 165 228 203 205 225 276 287 276 283 303 296 275 300 142 166 187 201 187 190 200 206 211
145 160 133 139 130 172 152 24 10 124 137 147 314 102 148 161 202 24 343 299 269 184 226 221 247 252 237 268 228 254 273 276 275 276 169 189 198 202 195 195 200 208 212
72 79 245 162 146 181 171 133 102 84 32 244 196 180 203 157 176 179 248 284 200 135 212 222 221 215 229 245 214 227 235 254 255 237 221 167 193 205 204 201 202 206 213
51 321 274 187 153 171 166 160 144 141 182 243 194 198 207 183 213 193 215 243 98 60 291 252 195 223 236 235 256 244 211 233 250 259 217 188 193 198 208 217 212 212 213
260 197 232 222 156 151 145 159 167 173 180 207 190 204 264 214 215 205 199 231 247 209 211 233 218 198 242 265 231 246 249 223 219 252 209 223 203 204 195 212 210 214 214
222 193 152 163 127 146 128 229 97 177 121 357 175 182 307 271 225 235 202 239 225 205 208 177 220 236 225 245 238 274 278 247 220 236 263 227 218 206 200 204 203 219 225
181 156 154 139 120 128 158 192 187 182 177 211 197 153 197 222 222 206 222 213 305 152 183 208 224 230 257 208 230 269 247 232 323 274 246 215 219 233 240 166 178 202 215
143 152 137 132 131 190 188 239 184 213 186 186 177 184 194 186 197 187 258 267 211 279 167 225 259 295 269 186 208 215 310 83 218 258 207 209 229 206 223 221 175 211 210
194 146 135 134 147 187 254 163 124 300 231 179 246 287 215 165 176 185 210 261 314 303 307 222 223 243 278 309 283 323 323 329 332 315 224 222 220 93 47 357 215 239 211
143 136 125 140 150 177 237 258 173 138 285 248 76 351 263 191 180 195 203 197 230 261 298 280 247 240 282 292 327 35 64 255 92 341 310 19 90 196 116 281 288 284 179
110 118 125 139 160 186 187 240 311 270 266 282 143 127 289 142 259 238 301 312 256 236 252 259 288 273 259 268 286 301 319 322 212 186 276 281 56 311 325 334 330 277 216
122 125 133 117 151 170 205 217 244 294 320 329 356 325 299 344 8 354 3 333 334 307 308 282 264 274 256 268 274 281 257 233 252 219 235 285 288 201 250 218 244 328 343